• In Czech Republic
  • List of Countries
  • For 7 days
  • Water Temperature
  • Satellite Maps
  • Weather Map
  • Weather Widgets
  • user-avatar
    Login

    Hourly Weather Laszkar Gah

    Today, 19 November, Sunday

    Time Temperature Precipitation Wind Pressure Humidity
    00:00 +13°C° 0 mm 2 mps 697 mmHg 33%
    01:00 +13°C° 0 mm 1 mps 697 mmHg 34%
    02:00 +12°C° 0 mm 1 mps 697 mmHg 35%
    03:00 +12°C° 0 mm 1 mps 697 mmHg 36%
    04:00 +12°C° 0 mm 1 mps 697 mmHg 36%
    05:00 +12°C° 0 mm 1 mps 698 mmHg 36%
    06:00 +12°C° 0 mm 2 mps 698 mmHg 36%
    07:00 +12°C° 0 mm 2 mps 698 mmHg 36%
    08:00 +13°C° 0 mm 2 mps 699 mmHg 32%
    09:00 +15°C° 0 mm 2 mps 699 mmHg 28%
    10:00 +17°C° 0 mm 2 mps 700 mmHg 24%
    11:00 +17°C° 0 mm 2 mps 700 mmHg 23%
    12:00 +18°C° 0 mm 2 mps 699 mmHg 21%
    13:00 +19°C° 0 mm 2 mps 699 mmHg 20%
    14:00 +19°C° 0 mm 2 mps 699 mmHg 20%
    15:00 +19°C° 0 mm 2 mps 698 mmHg 19%
    16:00 +19°C° 0 mm 2 mps 698 mmHg 19%
    17:00 +18°C° 0 mm 2 mps 698 mmHg 21%
    18:00 +17°C° 0 mm 2 mps 698 mmHg 22%
    19:00 +15°C° 0 mm 2 mps 699 mmHg 24%
    20:00 +15°C° 0 mm 2 mps 699 mmHg 24%
    21:00 +14°C° 0 mm 2 mps 699 mmHg 25%
    22:00 +14°C° 0 mm 2 mps 698 mmHg 26%
    23:00 +13°C° 0 mm 1 mps 698 mmHg 28%

    Tomorrow, 20 November, Monday

    Time Temperature Precipitation Wind Pressure Humidity
    00:00 +12°C° 0 mm 1 mps 698 mmHg 29%
    01:00 +12°C° 0 mm 1 mps 698 mmHg 30%
    02:00 +11°C° 0 mm 1 mps 698 mmHg 31%
    03:00 +11°C° 0 mm 1 mps 697 mmHg 32%
    04:00 +10°C° 0 mm 1 mps 697 mmHg 33%
    05:00 +11°C° 0 mm 1 mps 697 mmHg 32%
    06:00 +11°C° 0 mm 1 mps 698 mmHg 32%
    07:00 +11°C° 0 mm 1 mps 698 mmHg 32%
    08:00 +13°C° 0 mm 1 mps 699 mmHg 28%
    09:00 +15°C° 0 mm 1 mps 699 mmHg 25%
    10:00 +18°C° 0 mm 1 mps 700 mmHg 21%
    11:00 +18°C° 0 mm 1 mps 699 mmHg 20%
    12:00 +19°C° 0 mm 1 mps 699 mmHg 18%
    13:00 +20°C° 0 mm 1 mps 698 mmHg 17%
    14:00 +20°C° 0 mm 1 mps 698 mmHg 17%
    15:00 +20°C° 0 mm 1 mps 698 mmHg 16%
    16:00 +20°C° 0 mm 1 mps 697 mmHg 16%
    17:00 +19°C° 0 mm 1 mps 697 mmHg 17%
    18:00 +18°C° 0 mm 1 mps 697 mmHg 19%
    19:00 +15°C° 0 mm 1 mps 697 mmHg 20%
    20:00 +15°C° 0 mm 1 mps 697 mmHg 21%
    21:00 +13°C° 0 mm 0 mps 697 mmHg 22%
    22:00 +13°C° 0 mm 0 mps 697 mmHg 23%
    23:00 +13°C° 0 mm 0 mps 697 mmHg 23%

    Day after tomorrow, 21 November, Tuesday

    Time Temperature Precipitation Wind Pressure Humidity
    00:00 +12°C° 0 mm 0 mps 696 mmHg 24%
    01:00 +11°C° 0 mm 0 mps 696 mmHg 25%
    02:00 +12°C° 0 mm 1 mps 696 mmHg 26%
    03:00 +12°C° 0 mm 1 mps 696 mmHg 27%
    04:00 +11°C° 0 mm 1 mps 696 mmHg 27%
    05:00 +11°C° 0 mm 1 mps 696 mmHg 27%
    06:00 +12°C° 0 mm 1 mps 696 mmHg 27%
    07:00 +12°C° 0 mm 1 mps 697 mmHg 27%
    08:00 +14°C° 0 mm 1 mps 697 mmHg 24%
    09:00 +16°C° 0 mm 1 mps 698 mmHg 21%
    10:00 +19°C° 0 mm 1 mps 698 mmHg 18%
    11:00 +18°C° 0 mm 0 mps 698 mmHg 16%
    12:00 +18°C° 0 mm 0 mps 697 mmHg 15%
    13:00 +19°C° 0 mm 0 mps 696 mmHg 14%
    14:00 +19°C° 0 mm 0 mps 696 mmHg 14%
    15:00 +19°C° 0 mm 0 mps 696 mmHg 14%
    16:00 +19°C° 0 mm 0 mps 696 mmHg 14%
    17:00 +19°C° 0 mm 1 mps 696 mmHg 16%
    18:00 +18°C° 0 mm 1 mps 696 mmHg 18%
    19:00 +15°C° 0 mm 1 mps 696 mmHg 20%
    20:00 +15°C° 0 mm 1 mps 696 mmHg 20%
    21:00 +14°C° 0 mm 1 mps 696 mmHg 21%
    22:00 +14°C° 0 mm 1 mps 696 mmHg 22%
    23:00 +14°C° 0 mm 1 mps 695 mmHg 22%

    22 November, Wednesday

    Time Temperature Precipitation Wind Pressure Humidity
    00:00 +14°C° 0 mm 2 mps 695 mmHg 22%
    01:00 +14°C° 0 mm 2 mps 695 mmHg 22%
    02:00 +13°C° 0 mm 2 mps 694 mmHg 22%
    03:00 +13°C° 0 mm 2 mps 694 mmHg 23%
    04:00 +12°C° 0 mm 3 mps 694 mmHg 23%
    05:00 +12°C° 0 mm 3 mps 694 mmHg 23%
    06:00 +12°C° 0 mm 3 mps 695 mmHg 23%
    07:00 +12°C° 0 mm 3 mps 695 mmHg 22%
    08:00 +14°C° 0 mm 3 mps 695 mmHg 19%
    09:00 +17°C° 0 mm 3 mps 696 mmHg 16%
    10:00 +19°C° 0 mm 3 mps 696 mmHg 13%
    11:00 +20°C° 0 mm 3 mps 696 mmHg 12%
    12:00 +21°C° 0 mm 2 mps 695 mmHg 11%
    13:00 +23°C° 0 mm 2 mps 695 mmHg 10%
    14:00 +21°C° 0 mm 2 mps 695 mmHg 10%
    15:00 +21°C° 0 mm 2 mps 694 mmHg 10%
    16:00 +21°C° 0 mm 2 mps 694 mmHg 11%
    17:00 +20°C° 0 mm 2 mps 694 mmHg 12%
    18:00 +19°C° 0 mm 3 mps 694 mmHg 13%
    19:00 +17°C° 0 mm 3 mps 694 mmHg 14%
    20:00 +17°C° 0 mm 3 mps 694 mmHg 14%
    21:00 +17°C° 0 mm 3 mps 694 mmHg 14%
    22:00 +16°C° 0 mm 3 mps 694 mmHg 14%
    23:00 +16°C° 0 mm 3 mps 693 mmHg 14%

    23 November, Thursday

    Time Temperature Precipitation Wind Pressure Humidity
    00:00 +16°C° 0 mm 3 mps 693 mmHg 14%
    01:00 +14°C° 0 mm 3 mps 693 mmHg 14%
    02:00 +14°C° 0 mm 3 mps 693 mmHg 14%
    03:00 +14°C° 0 mm 4 mps 692 mmHg 14%
    04:00 +14°C° 0 mm 4 mps 692 mmHg 14%
    05:00 +14°C° 0 mm 3 mps 693 mmHg 14%
    06:00 +14°C° 0 mm 3 mps 693 mmHg 14%
    07:00 +16°C° 0 mm 3 mps 693 mmHg 13%
    08:00 +17°C° 0 mm 3 mps 694 mmHg 12%
    09:00 +19°C° 0 mm 3 mps 694 mmHg 11%
    10:00 +20°C° 0 mm 4 mps 695 mmHg 9%
    11:00 +21°C° 0 mm 3 mps 695 mmHg 9%
    12:00 +22°C° 0 mm 3 mps 694 mmHg 8%
    13:00 +24°C° 0 mm 3 mps 694 mmHg 7%
    14:00 +24°C° 0 mm 3 mps 694 mmHg 8%
    15:00 +24°C° 0 mm 3 mps 693 mmHg 8%
    16:00 +22°C° 0 mm 3 mps 693 mmHg 8%
    17:00 +21°C° 0 mm 3 mps 693 mmHg 9%
    18:00 +20°C° 0 mm 3 mps 693 mmHg 10%
    19:00 +19°C° 0 mm 4 mps 694 mmHg 11%
    20:00 +18°C° 0 mm 4 mps 694 mmHg 12%
    21:00 +18°C° 0 mm 4 mps 694 mmHg 13%
    22:00 +17°C° 0 mm 4 mps 694 mmHg 14%
    23:00 +17°C° 0 mm 4 mps 694 mmHg 14%

    24 November, Friday

    Time Temperature Precipitation Wind Pressure Humidity
    00:00 +15°C° 0 mm 4 mps 693 mmHg 15%
    01:00 +16°C° 0 mm 3 mps 693 mmHg 16%
    02:00 +16°C° 0 mm 3 mps 693 mmHg 16%
    03:00 +14°C° 0 mm 3 mps 693 mmHg 16%
    04:00 +14°C° 0 mm 3 mps 693 mmHg 16%
    05:00 +14°C° 0 mm 3 mps 694 mmHg 16%
    06:00 +14°C° 0 mm 3 mps 694 mmHg 16%
    07:00 +14°C° 0 mm 3 mps 694 mmHg 16%
    08:00 +17°C° 0 mm 3 mps 695 mmHg 14%
    09:00 +19°C° 0 mm 3 mps 695 mmHg 12%
    10:00 +21°C° 0 mm 3 mps 696 mmHg 10%
    11:00 +22°C° 0 mm 3 mps 696 mmHg 10%
    12:00 +24°C° 0 mm 2 mps 695 mmHg 10%
    13:00 +25°C° 0 mm 2 mps 695 mmHg 10%
    14:00 +25°C° 0 mm 2 mps 695 mmHg 11%
    15:00 +24°C° 0 mm 1 mps 694 mmHg 11%
    16:00 +24°C° 0 mm 1 mps 694 mmHg 12%
    17:00 +23°C° 0 mm 1 mps 694 mmHg 13%
    18:00 +21°C° 0 mm 1 mps 695 mmHg 14%
    19:00 +19°C° 0 mm 2 mps 695 mmHg 15%
    20:00 +19°C° 0 mm 2 mps 695 mmHg 15%
    21:00 +19°C° 0 mm 2 mps 695 mmHg 15%
    22:00 +18°C° 0 mm 2 mps 695 mmHg 15%
    23:00 +18°C° 0 mm 2 mps 695 mmHg 16%
    Show more